Regional Weather Roundup
Issued by NWS Northern Indiana

Home | Current Version | Previous Version | Graphics & Text | Print | Product List | Glossary On
Versions: 1 2 3 4 5 6 7 8 9 10 11 12 13 14 15 16 17 18 19 20 21 22 23 24 25 26 27 28 29 30 31 32 33 34 35 36 37 38 39 40 41 42 43 44 45 46 47 48 49 50
000
ASUS43 KIWX 011100
RWRIWX

KIWX WEATHER ROUNDUP
NATIONAL WEATHER SERVICE NORTHERN INDIANA
700 AM EDT TUE SEP 01 2015

NOTE: "FAIR" INDICATES FEW OR NO CLOUDS BELOW 12,000 FEET WITH NO
SIGNIFICANT WEATHER AND/OR OBSTRUCTIONS TO VISIBILITY.

* THESE STATIONS ARE NOT UNDER NWS QUALITY CONTROL. THEY ALSO MAY NOT
  REPORT WEATHER SUCH AS PRECIPITATION OR FOG.

INZ001>027-011200-
NORTHERN INDIANA

CITY           SKY/WX    TMP DP  RH WIND       PRES   REMARKS
GARY*          PTCLDY    72  68  88 VRB5      30.06R
SOUTH BEND     CLEAR     68  67  96 SW5       30.09R
ELKHART*       CLEAR     66  66 100 CALM      30.09
GOSHEN         CLEAR     68  66  93 S3        30.10R FOG
MONTICELLO*    PTCLDY    70  69  98 S6        30.08S
ANGOLA*        CLOUDY    66  55  68 CALM      30.10S VSB 0
FORT WAYNE     CLEAR     68  66  93 SW6       30.12R FOG

$$
INZ028>050-011200-
CENTRAL INDIANA

CITY           SKY/WX    TMP DP  RH WIND       PRES   REMARKS
LAFAYETTE      PTCLDY    69  66  90 CALM      30.09S
KOKOMO*        PTCLDY    66  63  88 S5        30.12R
MUNCIE*        PTCLDY    68  67  96 VRB3      30.13R
INDIANAPOLIS   MOCLDY    71  66  84 S5        30.12R

$$
MIZ043>046-050>051-056>058-064>065-071>073-077>080-011200-
SOUTHWEST LOWER MICHIGAN

CITY           SKY/WX    TMP DP  RH WIND       PRES   REMARKS
BATTLE CREEK   CLEAR     67  65  93 SW5       30.09R FOG
BENTON HARBOR  CLEAR     67  65  93 CALM      30.06S FOG
COLDWATER*       N/A     65  65 100 CALM      30.10S FOG
HILLSDALE*     CLEAR     66  66 100 CALM      30.11R FOG
HOLLAND        CLEAR     66  64  93 CALM      30.07R FOG
GRAND RAPIDS   PTCLDY    65  64  97 CALM      30.07S FOG
KALAMAZOO      CLEAR     66  64  93 CALM      30.09R FOG
STURGIS*       FOG       66  66 100 CALM      30.10R VSB 1/4
THREE RIVERS*  FOG       66  66 100 CALM      30.10R VSB 1/4

$$
OHZ001>008-015>018-024>025-011200-
NORTHWEST OHIO

CITY           SKY/WX    TMP DP  RH WIND       PRES   REMARKS
DEFIANCE       CLEAR     67  65  93 CALM      30.10S FOG
FINDLAY        CLEAR     67  65  93 SW3       30.10R FOG
TOLEDO EXPRESS CLEAR     64  64 100 CALM      30.09R FOG
TOLEDO METCALF CLEAR     68  64  87 SW3       30.10R FOG
LIMA           CLEAR     68  66  93 S3        30.12R FOG

$$
AND FOR LAKE MICHIGAN COASTAL AND OPEN LAKE BUOY OBSERVATIONS

STATION/POSITION TEMP    WIND        PRES    VSBY  WAVE
                 AIR SEA DIR/SP/G                  HT/PER
                 (F)     (DEG/KT/KT) (MB)    (MI)  (FT/S)
CALUMET HARBOR    72     180/  4/  5   N/A
MICHIGAN CITY     75     170/ 11/ 13   N/A
BURNS HARBOR      72     180/  8/ 11 1018.3R
SAINT JOSEPH      72     150/  5/  8 1017.9R
SOUTH LAKE BUOY   71 69  180/  8/  8 1016.8R         0
4 MI NW BRIDGMAN  72 71  230/  6/  8   N/A           0
MICHIGAN CITY     73 72  200/  6/  8   N/A           1

$$
&&


USA.gov is the U.S. government's official web portal to all federal, state and local government web resources and services.